Theta_e
290 290 290 290 290 290 290 291 292 294 295 296 297 298 299 299 299 299 299 297 296 296 296 296 296 297 299 300 301 303 305 305 301 304 306 307 303 303 303 303 303 304 306
287 286 285 285 285 285 286 287 289 289 290 291 292 293 293 294 294 293 292 292 291 291 292 292 292 295 293 294 294 293 293 295 296 295 296 297 297 297 297 297 299 300 300
283 283 282 282 282 282 283 284 286 286 287 287 288 288 289 291 291 290 290 289 288 289 289 289 290 291 291 291 291 291 293 295 295 294 293 297 297 294 293 293 293 294 296
280 280 280 280 280 281 282 282 282 282 283 284 285 285 286 287 289 288 287 287 286 287 287 288 288 290 290 290 291 292 293 292 293 292 291 291 292 290 289 287 287 288 290
278 278 277 279 279 280 280 280 280 280 281 282 282 282 283 285 287 286 285 286 285 285 286 287 288 286 287 290 291 290 290 289 289 288 287 286 285 283 283 286 285 287 287
276 275 276 277 277 278 278 278 278 278 279 280 280 280 281 283 287 288 286 284 284 284 284 285 285 284 286 288 289 291 291 289 287 286 284 284 284 283 284 285 284 283 280
275 275 275 275 276 276 276 276 276 276 278 278 278 279 280 282 285 285 284 283 283 284 284 283 282 283 283 284 285 287 287 288 289 287 285 285 284 284 284 283 283 282 283
273 273 274 274 275 275 275 275 275 276 276 277 278 279 279 280 282 282 282 280 280 281 281 282 282 282 283 282 282 281 281 282 283 284 284 284 284 285 285 285 285 284 284
271 272 272 273 274 273 273 273 274 275 276 276 277 277 277 277 280 281 281 279 278 278 279 280 279 279 281 283 281 279 279 280 283 285 285 286 286 287 286 284 282 281 281
269 270 271 271 271 270 270 271 273 274 274 275 275 275 276 275 277 279 279 277 276 276 277 278 279 278 280 281 280 279 277 278 279 280 281 282 282 282 284 283 282 280 281
268 268 268 268 269 269 269 270 270 271 271 271 271 272 273 273 273 276 277 275 275 275 275 275 276 278 279 280 281 279 278 280 280 279 278 277 278 278 279 282 283 282 281
266 266 266 267 267 268 268 268 269 269 268 268 269 269 270 271 273 274 275 276 277 273 273 274 275 278 278 279 277 278 279 279 276 275 274 273 274 276 278 281 283 283 284
264 264 264 265 266 266 266 266 266 267 266 266 267 266 267 270 270 273 273 275 275 274 274 275 276 276 276 274 274 275 273 272 272 271 271 272 273 275 276 277 281 283 283
261 262 263 263 263 264 265 265 265 264 264 266 266 265 266 267 268 270 272 272 274 273 274 274 274 273 272 271 269 270 270 270 269 269 269 270 272 273 273 273 273 274 276
261 261 261 262 262 262 263 263 264 266 267 266 265 267 265 265 268 273 273 271 271 273 273 269 266 266 265 265 266 266 267 267 266 267 267 267 268 269 269 271 272 271 270
260 260 260 260 260 261 260 261 265 267 268 269 270 269 268 270 272 273 273 274 274 275 268 260 263 263 263 263 263 263 264 264 264 265 265 265 264 265 265 266 267 267 268
258 259 259 259 259 259 259 259 257 261 265 266 267 268 269 270 271 271 272 273 273 271 259 261 261 261 261 262 262 262 262 263 263 263 262 263 263 263 263 263 264 265 265
256 257 257 257 257 257 257 257 257 256 255 257 261 264 267 268 268 269 271 270 259 261 255 258 259 260 260 261 261 261 261 261 261 261 261 261 261 261 260 260 260 261 261
255 256 256 255 255 255 255 254 255 254 254 254 256 259 261 264 266 268 268 254 256 257 258 258 259 259 260 260 260 260 260 260 260 260 260 259 259 259 259 259 260 260 260
251 253 254 252 252 252 253 253 253 252 253 253 254 255 256 256 259 260 259 258 257 257 257 258 259 259 259 259 260 260 260 259 259 259 259 259 259 259 258 258 258 258 258
250 249 251 251 250 251 251 250 252 252 252 252 253 255 263 261 259 258 257 256 256 257 257 258 259 259 260 260 260 260 260 260 260 260 259 259 259 258 259 259 258 258 258
249 248 247 247 252 252 251 251 252 251 252 252 253 254 261 256 255 255 255 256 257 257 258 258 259 260 260 260 261 260 260 260 260 260 260 260 259 259 258 258 258 257 257
251 249 249 249 250 251 251 250 250 251 251 252 252 253 253 254 254 254 255 256 257 257 258 259 259 260 261 262 263 262 262 261 262 262 261 260 260 259 258 257 257 257 256
247 248 249 250 249 250 250 251 251 251 251 252 252 252 253 253 253 254 255 256 256 257 258 258 259 260 261 262 263 263 264 264 264 263 262 261 260 260 259 258 257 257 257
245 247 248 249 249 250 251 251 251 251 251 252 252 252 252 253 253 254 255 255 256 256 257 258 260 261 261 262 262 262 263 264 264 264 264 263 261 260 259 258 258 257 257
249 249 250 250 250 250 250 251 251 252 251 252 252 252 252 252 253 253 254 254 255 255 256 257 259 260 261 262 262 263 264 266 265 266 266 264 262 261 260 258 258 257 257
Wind_Speed
10 10 10 9 9 10 9 9 8 8 9 9 8 7 7 7 7 5 5 5 5 5 5 5 5 5 4 4 4 4 4 3 9 8 5 4 6 6 6 7 8 10 8
9 10 11 10 10 10 9 9 9 9 9 9 8 7 7 6 6 6 5 5 5 6 5 6 5 4 5 4 2 3 3 3 4 13 5 3 3 5 6 7 6 7 7
10 11 11 11 11 10 10 9 9 8 8 8 7 7 7 7 7 6 5 5 5 4 4 5 5 5 4 2 2 3 3 4 5 8 10 6 9 6 5 6 6 6 6
10 10 10 9 9 8 8 8 9 8 8 7 7 7 7 6 7 6 6 6 6 5 5 5 5 6 5 4 4 5 7 7 7 8 10 10 7 3 4 6 8 4 8
10 10 11 9 8 8 9 9 9 8 8 8 8 8 8 6 7 7 6 6 6 6 5 5 6 7 10 9 5 5 5 6 6 8 9 8 5 4 3 4 9 9 9
9 9 8 9 9 10 9 9 9 9 9 8 8 8 7 5 14 14 11 6 6 6 5 5 5 6 8 13 13 12 8 6 9 7 8 10 9 5 5 7 7 8 7
9 11 11 10 10 10 9 9 10 10 9 9 8 8 8 6 17 18 19 7 6 6 6 6 6 5 7 6 10 14 10 14 14 9 13 12 14 8 8 10 9 8 10
11 11 11 10 9 9 9 9 9 8 8 8 8 8 7 8 16 18 19 9 8 8 9 9 8 9 10 10 8 8 8 8 9 8 9 11 11 9 9 11 12 13 12
10 10 10 10 10 10 11 10 8 8 7 7 7 8 9 8 16 18 15 8 9 10 9 7 8 9 15 19 12 12 10 8 11 18 20 22 24 23 19 9 10 9 10
9 9 9 9 9 9 10 10 10 8 9 8 10 8 9 9 16 20 16 7 9 8 8 9 13 12 20 22 14 12 13 12 12 13 10 12 15 13 22 13 8 12 10
7 7 8 8 8 8 9 7 8 8 8 9 9 9 9 10 12 19 20 10 8 8 9 8 8 20 21 23 23 12 14 18 16 11 10 10 10 10 9 8 9 10 12
6 6 7 8 7 7 8 7 7 7 6 6 7 6 7 9 13 14 19 17 18 10 11 9 9 23 24 24 20 25 26 22 9 9 10 9 9 9 9 9 9 11 11
5 6 6 6 7 7 6 7 5 6 5 6 6 5 6 6 7 15 16 19 18 11 9 16 23 22 22 16 20 24 20 9 10 10 10 10 9 11 14 13 11 10 11
4 4 4 5 6 6 5 5 4 4 4 5 5 6 6 6 7 8 8 8 12 11 14 9 14 17 18 17 10 11 8 9 10 11 11 11 11 11 6 8 10 11 12
5 6 6 5 6 5 5 5 5 5 7 6 4 6 6 7 8 17 17 10 10 14 15 6 6 9 8 8 8 8 8 8 9 10 10 11 11 10 10 9 9 10 12
3 3 3 4 3 4 5 6 9 11 14 13 12 9 6 15 19 21 22 23 23 24 7 4 8 8 9 9 9 9 8 9 9 10 10 10 11 11 11 9 9 10 12
4 4 3 4 4 4 5 5 8 8 13 11 12 14 16 17 19 21 23 22 20 17 5 7 9 9 10 10 10 10 10 9 10 10 10 10 11 11 12 10 9 10 11
2 4 3 4 3 3 4 5 5 7 10 7 8 14 15 16 20 21 20 15 7 8 3 7 9 9 10 10 10 11 11 10 10 10 10 10 10 11 11 11 10 11 11
3 2 3 4 4 4 5 4 4 5 7 9 11 9 5 19 20 17 17 1 6 8 7 8 9 10 10 10 11 11 12 11 11 11 11 11 11 10 11 10 10 14 14
3 6 6 4 3 3 3 4 5 4 6 7 8 8 9 10 10 10 7 6 6 8 8 9 10 10 11 11 11 11 11 12 12 11 11 11 11 10 11 11 10 11 11
3 3 6 4 4 4 3 3 4 5 6 7 8 9 20 12 10 9 10 10 9 9 10 10 11 12 11 12 12 12 12 13 13 13 12 11 11 11 11 11 11 11 11
4 4 3 3 3 4 4 4 5 6 7 7 9 10 21 8 8 9 9 10 10 10 10 11 11 12 13 13 13 13 14 14 14 13 13 12 12 12 11 12 11 11 11
4 3 2 2 4 6 6 4 5 6 7 8 8 9 8 8 9 9 10 10 10 11 10 10 12 14 13 13 13 14 14 16 15 13 14 13 12 12 11 12 11 11 10
2 3 4 5 4 4 5 6 6 8 8 8 8 9 9 9 10 12 11 11 11 11 11 12 13 18 17 17 15 15 15 16 15 15 19 15 14 14 12 13 13 14 12
3 3 4 5 5 5 7 7 7 8 8 8 9 8 9 9 10 11 11 11 12 12 14 14 14 18 22 25 25 29 29 31 25 25 16 18 18 18 15 13 14 13 14
4 4 5 4 6 6 7 8 8 8 8 8 8 9 10 10 11 11 11 12 12 13 16 14 18 25 27 23 27 30 30 30 26 28 18 15 16 15 14 17 20 14 15
Wind_Direction
48 50 52 45 44 46 44 34 27 28 24 29 24 27 24 22 19 26 33 22 24 6 7 2 345 350 341 340 336 321 308 318 284 288 283 314 317 311 320 319 315 311 309
48 51 49 45 41 45 39 29 24 29 25 25 21 23 20 18 28 32 29 24 25 12 356 356 343 344 336 334 345 329 296 292 282 289 296 288 305 316 296 303 311 304 301
52 50 43 39 35 32 29 26 26 24 24 25 27 26 15 26 26 20 20 19 15 7 348 338 323 321 310 287 286 299 286 284 275 282 289 295 299 308 312 314 304 301 305
45 49 47 39 37 31 26 25 25 17 20 19 23 24 17 23 26 12 10 4 355 348 343 339 329 323 321 343 337 323 308 310 301 294 293 298 298 309 312 313 314 300 308
44 44 34 27 28 26 27 22 16 14 11 12 17 17 13 19 15 7 5 348 340 340 340 343 344 331 335 334 313 297 306 295 294 293 292 297 299 310 288 305 303 306 309
40 43 35 31 29 24 19 20 16 11 10 13 14 9 8 7 9 9 6 342 340 335 329 335 341 325 345 333 327 323 313 295 279 279 281 285 292 303 308 302 306 316 318
36 33 28 25 27 22 20 22 20 8 3 11 11 6 4 356 18 9 359 352 343 340 339 344 330 343 337 340 328 321 317 310 299 294 288 281 289 298 302 303 296 284 276
34 31 24 19 20 16 17 19 12 2 9 10 4 18 11 15 8 4 6 358 351 351 350 341 340 351 343 333 344 330 324 308 293 286 282 288 280 285 271 285 288 289 283
27 24 17 9 12 11 10 7 6 358 4 9 7 14 2 1 1 357 1 357 348 348 341 345 343 338 340 336 327 319 314 309 300 298 294 291 291 287 282 282 277 276 289
16 16 14 9 8 14 3 1 359 3 2 2 355 14 1 0 355 353 356 351 346 341 337 343 343 340 332 328 323 317 309 313 304 296 299 302 298 287 283 270 267 266 263
3 9 12 13 4 12 4 6 358 4 3 3 2 359 360 360 348 351 351 352 340 340 337 334 336 327 321 320 319 319 311 313 312 308 300 300 298 290 280 267 251 254 263
360 12 13 8 10 7 1 360 354 360 359 355 355 354 349 347 343 346 349 342 339 339 328 323 316 319 325 326 330 317 311 313 307 297 296 298 295 296 294 290 262 250 252
359 9 12 11 8 360 5 2 349 355 358 347 348 345 333 339 336 338 332 337 336 330 324 313 326 326 331 326 314 316 317 310 305 304 299 297 297 296 293 289 291 293 277
334 3 11 13 359 359 354 347 337 340 337 331 335 328 329 331 334 319 322 324 322 320 313 315 324 328 319 309 307 306 303 301 302 298 295 297 299 292 306 316 308 301 289
352 7 7 354 351 343 344 325 333 321 305 323 311 322 327 323 317 322 328 327 317 315 325 337 336 318 312 308 304 298 294 293 294 294 296 297 298 304 301 301 299 300 288
334 346 346 327 329 332 326 312 316 322 327 321 320 326 320 315 315 322 323 320 319 322 340 328 308 305 302 303 301 298 294 291 287 289 290 294 296 296 296 296 292 285 284
344 327 329 322 320 334 319 317 321 326 328 328 322 322 319 312 324 321 321 317 323 336 318 304 298 300 296 293 291 288 287 285 289 284 284 285 286 288 293 291 291 290 288
306 295 301 298 305 299 310 311 310 312 317 311 309 314 317 326 323 318 313 331 328 312 248 280 285 287 288 288 288 287 287 287 282 280 277 278 279 281 284 285 285 284 284
297 304 307 287 286 289 289 285 286 289 298 306 319 320 308 322 322 320 325 185 287 295 294 290 289 288 286 285 283 283 280 278 277 275 273 272 271 273 272 274 277 283 285
258 264 263 257 269 292 288 290 292 280 286 291 299 302 320 324 323 324 314 305 296 287 290 284 286 284 282 282 281 279 277 274 272 270 268 266 265 263 267 271 270 273 275
238 234 244 255 254 251 247 252 272 282 281 282 286 290 298 305 306 300 301 298 292 287 287 285 287 286 284 282 278 275 272 271 268 267 265 264 262 261 259 260 263 264 267
244 252 248 253 290 290 262 261 276 276 279 282 288 289 300 297 282 281 280 281 281 278 279 281 283 282 283 281 279 276 273 271 269 267 263 259 256 255 254 255 257 258 260
231 244 270 258 253 270 278 258 262 267 274 277 280 285 289 285 282 281 280 280 282 284 283 280 281 283 283 281 278 274 274 272 270 266 262 259 255 251 248 251 252 253 252
249 241 255 261 255 261 269 281 279 273 271 274 276 278 280 281 281 282 284 286 286 285 285 284 281 281 286 285 284 281 276 273 269 264 262 257 253 253 247 247 245 245 247
219 243 253 269 277 282 287 279 274 271 271 272 277 275 277 278 279 281 284 286 287 288 287 286 284 287 288 289 284 283 279 279 275 271 266 258 250 246 241 241 241 241 241
231 236 250 256 258 258 260 268 271 272 274 276 274 274 277 280 280 282 284 285 287 288 290 289 287 287 290 291 287 286 286 286 281 275 264 249 243 241 235 234 238 238 238